Regional Weather Roundup
Issued by NWS Wakefield, VA

Home | Current Version | Previous Version | Text Only | Print | Product List | Glossary Off
Versions: 1 2 3 4 5 6 7 8 9 10 11 12 13 14 15 16 17 18 19 20 21 22 23 24 25 26 27

000
ASUS41 KAKQ 061215
RWRAKQ

REGIONAL WEATHER ROUNDUP
NATIONAL WEATHER SERVICE WAKEFIELD VA
700 AM EST TUE DEC 06 2016

Note: "fair" indicates few or no clouds below 12,000 feet with no
significant weather and/or obstructions to visibility. * = Denotes
station may not report precipitation (e.g., rain,snow,etc.),
thunder or fog.

VAZ042-051-052>054-056-061300-
NORTHERN VIRGINIA

CITY           SKY/WX    TMP DP  RH WIND       PRES   REMARKS
WASH NATIONAL  CLOUDY    44  33  65 E6        30.10F
DULLES         CLOUDY    40  33  76 CALM      30.10F
FORT BELVOIR   CLOUDY    43  30  61 CALM      30.09F
QUANTICO       CLOUDY    44  32  62 E7        30.11F
FREDERICKSBRG* LGT RAIN  42  38  84 CALM      30.09S
STAFFORD*      LGT RAIN  41  35  77 NE3       30.13S
WARRENTON      CLOUDY    40  32  71 NE3       30.08S
CULPEPER*      DRIZZLE   40  38  91 CALM      30.10S
MANASSAS*      NOT AVBL
LEESBURG*      CLOUDY    41  36  81 MISG      30.11R
WINCHESTER     CLOUDY    36  30  80 CALM      30.07F
FRONT ROYAL*   CLOUDY    41  30  65 SE5       30.06S
LURAY*         LGT RAIN  37  36  93 CALM      30.06R
$$

VAZ048-049-060>072-079>083-061300-
CENTRAL AND SOUTH CENTRAL VIRGINIA

CITY           SKY/WX    TMP DP  RH WIND       PRES   REMARKS
RICHMOND       LGT RAIN  42  38  85 NE8       30.06F
CHESTERFIELD*  CLOUDY    45  27  49 E8        30.07S
PETERSBURG*    LGT RAIN  44  41  91 NE6       30.05F
HANOVER        CLOUDY    43  36  76 E5        30.08F
TAPPAHANNOCK*  DRIZZLE   43  37  79 NE5       30.08F
QUINTON*       CLOUDY    43  39  86 NE7       30.06F
CHARLOTTSVILLE LGT RAIN  41  34  76 NE7       30.07R
GORDONSVILLE*  CLOUDY    40  35  84 NE5       30.07S
ORANGE*        LGT RAIN  41  37  87 CALM      30.10R
LOUISA*        DRIZZLE   45  39  81 NE3       30.06R
BUMPASS*       CLOUDY    41  37  84 NE3       30.08R
FARMVILLE*     CLOUDY    44  42  95 N7        30.03S
CREWE*         CLOUDY    43  43 100 NE5       30.02F
FORT PICKETT*  CLOUDY    43  40  88 NE10      30.01F
CHASE CITY*    CLOUDY    45  43  94 NE5       29.99S
CLARKSVILLE*   CLOUDY    45  43  93 NE9       29.98S
SOUTH HILL*    CLOUDY    44  42  95 NE6       30.05S
LAWRENCEVILLE* CLOUDY    44  41  89 NE6       30.00F
EMPORIA*       CLOUDY    43  41  93 N6        30.01F
$$

VAZ088>098-061300-
SOUTHEAST VIRGINIA

CITY           SKY/WX    TMP DP  RH WIND       PRES   REMARKS
NORFOLK        LGT RAIN  50  44  80 NE15G21   30.04S
VIRGINIA BEACH LGT RAIN  50  42  74 E15       30.03S
NORFOLK NAVAL  CLOUDY    50  44  80 NE15      30.04F
WEST POINT*    CLOUDY    43  39  86 NE3       30.09F
SALUDA*        CLOUDY    45  40  83 NE3       30.07F
NEWPORT NEWS   LGT RAIN  46  43  89 NE9       30.05F
LANGLEY AFB    LGT RAIN  48  45  87 NE16      30.04F FOG
FORT EUSTIS    LGT RAIN  46  41  82 NE3       30.02F
WILLIAMSBURG*  CLOUDY    45  43  93 CALM      30.06F
HR EXEC AP*    CLOUDY    46  43  87 NE7       30.01F
FRANKLIN*      CLOUDY    45  43  91 NE10      30.02F
US460-WAKEFLD  CLOUDY    45  41  86 NE5       30.03F
$$

VAZ020-022-025-037-045-061300-
WEST CENTRAL AND SOUTHWEST VIRGINIA

CITY           SKY/WX    TMP DP  RH WIND       PRES   REMARKS
STAUNTON*      DRIZZLE   39  33  80 NE3       30.06R
WAYNESBORO*    CLOUDY    37  32  81 E5        30.04R
HOT SPRINGS VA LGT RAIN  36  36 100 E14G20    29.90F VSB<1/4
LYNCHBURG      CLOUDY    42  39  89 NE12      30.00F
DANVILLE       LGT RAIN  45  43  93 NE7       29.98S
SOUTH BOSTON*  CLOUDY    45  44  96 NE5       29.99S
MARTINSVILLE   RAIN      44  42  92 NE6       30.01R
ROANOKE        LGT RAIN  44  41  89 E5        30.02R
BLACKSBURG     LGT RAIN  41  40  95 E13       29.98S
DUBLIN*        LGT RAIN  42  41  97 E9        29.94F
MARION*        LGT RAIN  42  41  96 E15       29.89F
HILLSVILLE*    MIX PCPN  37  37 100 CALM      29.91S
RICHLANDS*     DRIZZLE   42  37  82 SE16G30   29.79F
WISE*          RAIN      45  45 100 S7        29.78R
ABINGDON*      HVY RAIN  45  43  93 E18G24    29.81S
$$

MDZ021>025-VAZ099-100-061300-
SOUTHERN MARYLAND AND THE DELMARVA PENINSULA

CITY           SKY/WX    TMP DP  RH WIND       PRES   REMARKS
PATUXENT RIVER CLOUDY    43  33  68 E8        30.10F
BAY BRIDGE APT NOT AVBL
LEONARDTOWN    NOT AVBL
DOVER          CLOUDY    41  36  83 NE8       30.11S
GEORGETOWN     PTCLDY    43  33  68 NE6       30.11S
EASTON         CLOUDY    41  32  70 E3        30.15S
CAMBRIDGE      NOT AVBL
SALISBURY      CLOUDY    40  37  89 NE6       30.08F
OCEAN CITY     CLOUDY    48  37  65 E9        30.09F
WALLOPS ISLAND CLOUDY    45  40  82 NE6       30.08F
ACCOMACK*      CLOUDY    44  39  82 NE6       30.08S
$$

NCZ012>017-030>032-061300-
NORTH CENTRAL AND EASTERN NORTH CAROLINA

CITY           SKY/WX    TMP DP  RH WIND       PRES   REMARKS
ROANOKE RAPIDS NOT AVBL
RALEIGH        LGT RAIN  47  43  86 NE10      29.96S
ELIZABETH CITY CLOUDY    51  47  86 NE14      30.00F
AHOSKIE*       NOT AVBL
EDENTON*       NOT AVBL
CURRITUCK*     NOT AVBL
KILL DEVIL HLS NOT AVBL
MANTEO         NOT AVBL
CAPE HATTERAS  CLOUDY    54  52  93 E12G18    29.96F
TARBORO*       NOT AVBL
GOLDSBORO      LGT RAIN  48  48 100 NE9       29.91R
WASHINGTON     NOT AVBL
GREENVILLE     NOT AVBL
NEW BERN       LGT RAIN  50  48  93 NE8       29.95F
WILMINGTON     LGT RAIN  54  54 100 NE10      29.88F
$$

VAZ048-061300-
ELSEWHERE

CITY           SKY/WX    TMP DP  RH WIND       PRES   REMARKS
HARRISBURG PA  MOCLDY    33  30  88 CALM      30.11R
BALTIMORE      CLOUDY    41  31  67 E9        30.10S
ANNAPOLIS      CLOUDY    45  32  60 E7        30.10S
ANDREWS AFB    CLOUDY    41  32  70 E6        30.07F
PHILADELPHIA   CLOUDY    39  29  67 NE5       30.14R
GREENSBORO     LGT RAIN  43  42  97 E16       29.94S FOG
ROCKY MOUNT    CLOUDY    47  46  97 VRB7      29.98S
$$

VAZ100-061300-
MARINE

STATION/POSITION TIME  TEMP    WIND        PRES    WAVE   SWELL
                       AIR SEA DIR/SP/G            HT/PER HT/PER
                 (UTC) (F)     (DEG/KT/KT) (MB)    (FT/S) (FT/S)
BRANDYWINE LGT   1148   42      70/ 15/ 17   N/A
CAPE MAY NJ      1148   42 48   50/  6/ 11 1019.3F
LEWES DE         1148   45 47   70/ 14/ 16 1019.3F
OCEAN-CITY-INLET 1136   48 50   80/  8/ 11 1019.3F
WACHAPREAGUE VA  1148   46 48   40/  9/ 11 1018.4F
THOMAS POINT MD  1200   43 49   80/ 10/ 12   N/A
GOOSES REEF MD   1150   44     120/ 10/ 12 1019.9F
COVE POINT MD    1148   43      80/  9/ 11 1020.0F
SOLOMONS ISLAND  1136   44 51   60/  9/ 10   N/A
BISHOPS HEAD MD  1148   43 45   60/  5/  8 1019.2F
PINEY POINT MD   1148           90/  5/  6   N/A
POTOMAC MD       1150   45     100/ 12/ 16 1017.8F
CAMBRIDGE MD     1148   42 47   50/  7/  8 1018.6F
LEWISETTA VA     1148   46 49   90/ 14/ 16 1018.6F
RAPPAHANNOCK LGT 1148           60/ 12/ 13 1018.9F
STINGRAY PT      1150   47      80/ 14/ 17 1018.6F
YORK RVR RNG VA  1148   48      70/ 16/ 18 1017.3F
YORKTOWN VA      1148   47 52   60/ 12/ 14 1017.4F
JAMESTOWN VA     1150   45      50/  6/  8   N/A
DOMINION TERM VA 1148   49      60/ 10/ 16 1017.1F
KIPTOPEKE VA     1142      52   60/  6/  9   N/A
CHES BAY BRIDGE  1148   51 53   70/ 19/ 22 1017.2R
CAPE HENRY VA    1148   52      60/ 19/ 21   N/A
WILLOUBY STN VA  1148   49      40/ 16/ 18 1018.3F
S CRANEY ISL VA  1148   50      50/ 11/ 13 1017.2R
CAPE HENRY BUOY  1142      56                N/A     4/ 8   2/11
1ST LANDING BUOY 1150   51                 1017.9R
CAPE CHARLES BUO 1156      55                N/A     4/ 8   2/11
OFFSHORE WE BUOY 1151      56                N/A     5/ 8   2/11
64NM E OF VA BCH 1150   56 60   60/ 17/ 23 1016.6F   5/ 9   3/ 9
DUCK PIER NC     1148   54 54   60/ 23/ 26 1015.1F
44100 DUCK FRF   1135      56                N/A     5/ 8   2/11
OREGON INLET NC  1136   54 56   50/ 13/ 18 1015.6R
HATTERAS NC      1148   54 61   60/ 10/ 13 1014.1F
DIAMOND SHLS NC  1150   65 76   90/ 17/ 23 1014.0F   6/ 8   2/11
CAPE LOOKOUT NC  1100   56      50/ 19/ 22 1013.7F
$$




USA.gov is the U.S. government's official web portal to all federal, state and local government web resources and services.